Location: Silverdale
(47.6506°N, 122.6941°W)
Time: 05:10:44
(UTC+00:00)

Courier 1B Rocket - Pass Details

Date: 10 October 2022
Orbit: 920 x 1202 km, 28.3° (Epoch: 28 November)

Event Time Altitude Azimuth Distance (km) Brightness Sun altitude
Rises 03:48:08 0° 242° (WSW) 3,833 8.8 -23.3°
Reaches altitude 10° 03:53:40 10° 208° (SSW) 2,791 7.5 -24.1°
Maximum altitude 03:55:06 11° 195° (SSW) 2,718 7.3 -24.4°
Drops below altitude 10° 03:56:30 10° 183° (S) 2,749 7.2 -24.6°
Enters shadow 03:56:58 10° 179° (S) 2,781 7.2 -24.7°
